New York JFK, NY

9:24 AM EDT on June 28, 2017 (GMT -0400)
Kennedy International

Weather History for KJFK - March, 2012

Change the Weather History Date:

Tuesday, March 20, 2012

  Actual Average Record
Temperature  
Mean Temperature 60 °F 43 °F  
Max Temperature 69 °F 50 °F 70 °F (2010)
Min Temperature 51 °F 35 °F 15 °F (1949)
Degree Days  
Heating Degree Days 5 22  
Month to date heating degree days 361 499  
Since 1 July heating degree days 3282 4010  
Cooling Degree Days 0 0  
Month to date cooling degree days 0 0  
Year to date cooling degree days 0 0  
Growing Degree Days 10 (Base 50)    
Moisture  
Dew Point 53 °F    
Average Humidity 84    
Maximum Humidity 100    
Minimum Humidity 68    
Precipitation  
Precipitation 0.00 in 0.13 in 0.86 in (2002)
Month to date precipitation 0.57 2.33  
Year to date precipitation 4.02 8.08  
Snow  
Snow 0.00 in 0.10 in 3.00 in (2015)
Month to date snowfall 0.0 2.8  
Since 1 July snowfall 3.7 22.3  
Snow Depth 0.00 in    
Sea Level Pressure  
Sea Level Pressure 30.30 in    
Wind  
Wind Speed 5 mph (SE)    
Max Wind Speed 13 mph    
Max Gust Speed 14 mph    
Visibility 5 miles    
Events Fog    
T = Trace of Precipitation, MM = Missing Value Source: NWS Daily Summary

Daily Weather History Graph

Daily Weather History Graph

Search for Another Location

Airport or City:

Trip Planner

Search our weather history database for the weather conditions in past years. The results will help you decide how hot, cold, wet, or windy it might be!

Date:

Astronomy

Mar. 20, 2012 Rise Set
Actual Time 6:57 AM EDT 7:07 PM EDT
Civil Twilight 6:30 AM EDT 7:35 PM EDT
Nautical Twilight 5:58 AM EDT 8:07 PM EDT
Astronomical Twilight 5:26 AM EDT 8:39 PM EDT
Moon 5:39 AM EDT (3/20) 5:32 PM EDT (3/20)
Length of Visible Light 13h 04m
Length of Day
12h 09m
Waning Crescent, 4% of the Moon is Illuminated
Mar 20
Waning Crescent
Mar 22
New
Mar 30
First Quarter
Apr 6
Full
Apr 13
Last Quarter

Hourly Weather History & Observations

Time (EDT) Temp. Dew Point Humidity Pressure Visibility Wind Dir Wind Speed Gust Speed Precip Events Conditions
12:51 AM 52.0 °F 48.9 °F 89% 30.25 in 10.0 mi SSE 3.5 mph - N/A   Scattered Clouds
1:51 AM 52.0 °F 48.9 °F 89% 30.25 in 9.0 mi Calm Calm - N/A   Partly Cloudy
2:51 AM 52.0 °F 48.9 °F 89% 30.25 in 8.0 mi SE 3.5 mph - N/A   Scattered Clouds
3:23 AM 53.6 °F 51.8 °F 94% 30.25 in 0.2 mi SE 4.6 mph - N/A   Mostly Cloudy
3:40 AM 53.6 °F 51.8 °F 94% 30.25 in 0.2 mi SSE 4.6 mph - N/A Fog Fog
3:51 AM 53.1 °F 52.0 °F 96% 30.25 in 0.2 mi SE 3.5 mph - N/A Fog Fog
4:09 AM 53.6 °F 51.8 °F 94% 30.25 in 0.1 mi SE 3.5 mph - N/A Fog Fog
4:51 AM 53.1 °F 52.0 °F 96% 30.27 in 0.1 mi South 3.5 mph - N/A Fog Fog
5:01 AM 53.6 °F 51.8 °F 94% 30.27 in 0.1 mi SSW 3.5 mph - N/A Fog Fog
5:14 AM 53.6 °F 51.8 °F 94% 30.27 in 0.1 mi Calm Calm - N/A Fog Fog
5:51 AM 53.1 °F 52.0 °F 96% 30.28 in 0.1 mi Calm Calm - N/A Fog Fog
6:39 AM 53.6 °F 51.8 °F 94% 30.29 in 0.0 mi East 3.5 mph - N/A Fog Fog
6:51 AM 53.1 °F 51.1 °F 93% 30.30 in 0.0 mi East 3.5 mph - N/A Fog Fog
7:09 AM 53.6 °F 51.8 °F 94% 30.30 in 0.0 mi East 3.5 mph - N/A Fog Fog
7:45 AM 53.6 °F 51.8 °F 94% 30.31 in 0.0 mi Calm Calm - N/A Fog Fog
7:51 AM 54.0 °F 53.1 °F 97% 30.31 in 0.0 mi Calm Calm - N/A Fog Fog
8:31 AM 55.4 °F 53.6 °F 94% 30.32 in 0.0 mi ESE 3.5 mph - N/A Fog Fog
8:51 AM 55.0 °F 54.0 °F 96% 30.32 in 0.0 mi ESE 3.5 mph - N/A Fog Fog
9:04 AM 55.4 °F 53.6 °F 94% 30.32 in 0.0 mi ESE 3.5 mph - N/A Fog Fog
9:07 AM 55.4 °F 55.4 °F 100% 30.32 in 0.0 mi ESE 3.5 mph - N/A Fog Fog
9:35 AM 55.4 °F 55.4 °F 100% 30.33 in 0.0 mi ESE 4.6 mph - N/A Fog Fog
9:51 AM 57.0 °F 55.0 °F 93% 30.34 in 0.0 mi ESE 4.6 mph - N/A Fog Fog
10:21 AM 57.2 °F 55.4 °F 94% 30.34 in 0.2 mi ESE 3.5 mph - N/A Fog Fog
10:51 AM 57.9 °F 55.9 °F 93% 30.34 in 0.8 mi SSE 5.8 mph - N/A   Mostly Cloudy
11:02 AM 59.0 °F 55.4 °F 88% 30.34 in 2.0 mi ESE 3.5 mph - N/A   Mostly Cloudy
11:17 AM 62.6 °F 55.4 °F 77% 30.34 in 6.0 mi Variable 3.5 mph - N/A   Haze
11:51 AM 64.9 °F 57.0 °F 75% 30.34 in 8.0 mi Calm Calm - N/A   Scattered Clouds
12:51 PM 66.9 °F 55.9 °F 68% 30.33 in 10.0 mi ESE 5.8 mph - N/A Fog Scattered Clouds
1:51 PM 66.9 °F 55.9 °F 68% 30.32 in 10.0 mi South 9.2 mph - N/A Fog Scattered Clouds
2:51 PM 66.0 °F 55.9 °F 70% 30.30 in 10.0 mi SSE 8.1 mph - N/A Fog Scattered Clouds
3:51 PM 66.9 °F 57.0 °F 70% 30.29 in 10.0 mi SSE 5.8 mph - N/A Fog Scattered Clouds
4:51 PM 68.0 °F 57.0 °F 68% 30.28 in 10.0 mi SE 10.4 mph - N/A Fog Scattered Clouds
5:51 PM 64.0 °F 55.9 °F 75% 30.27 in 10.0 mi SE 9.2 mph - N/A Fog Scattered Clouds
6:51 PM 59.0 °F 54.0 °F 83% 30.29 in 10.0 mi ESE 8.1 mph - N/A Fog Scattered Clouds
7:12 PM 57.2 °F 53.6 °F 88% 30.28 in 10.0 mi SE 5.8 mph - N/A   Mostly Cloudy
7:51 PM 55.0 °F 51.1 °F 86% 30.29 in 10.0 mi ESE 9.2 mph - N/A   Mostly Cloudy
8:08 PM 55.4 °F 51.8 °F 88% 30.29 in 10.0 mi ESE 6.9 mph - N/A   Scattered Clouds
8:45 PM 55.4 °F 51.8 °F 88% 30.30 in 10.0 mi SE 5.8 mph - N/A   Mostly Cloudy
8:51 PM 55.9 °F 52.0 °F 87% 30.31 in 10.0 mi SE 5.8 mph - N/A   Mostly Cloudy
9:05 PM 55.4 °F 51.8 °F 88% 30.31 in 10.0 mi SE 6.9 mph - N/A   Overcast
9:16 PM 55.4 °F 51.8 °F 88% 30.31 in 10.0 mi ESE 5.8 mph - N/A   Overcast
9:51 PM 55.9 °F 52.0 °F 87% 30.31 in 10.0 mi East 4.6 mph - N/A   Overcast
10:45 PM 55.4 °F 51.8 °F 88% 30.32 in 10.0 mi ENE 5.8 mph - N/A   Scattered Clouds
10:51 PM 55.9 °F 52.0 °F 87% 30.32 in 10.0 mi East 5.8 mph - N/A   Scattered Clouds
11:04 PM 55.4 °F 51.8 °F 88% 30.32 in 10.0 mi SE 9.2 mph - N/A   Mostly Cloudy
11:14 PM 55.4 °F 51.8 °F 88% 30.33 in 0.8 mi SE 8.1 mph - N/A   Overcast
11:51 PM 55.0 °F 53.1 °F 93% 30.33 in 0.1 mi Calm Calm - N/A Fog Fog